カタログに戻る

ICEYE-X56

運用中科学SSO
NORAD 64574·PAYLOAD·🇫🇮 Finland

打ち上げ Jun 23, 2025 から Vandenberg Space Force Base

Loading…

次のパス (今後24時間)

TLE

最新Source: Space-Track

元期: Sep 14, 2026, 22:28 UTC

1 64574U 25135AY  26257.93638146  .00002753  00000-0  25027-3 0  9990
2 64574  97.7820  12.2534 0003019  61.1734 298.9790 14.96055544 67340

AllMySatでICEYE-X56をリアルタイム追跡

Download on the App Store